This is the latest recevied weather packets stored in our database for station/object WD9U. If no packets are shown the sender has not sent any weather packets the latest 10 day(s).
| Time | Temp. | Humidity | Pressure | Rain* | Wind** | Luminosity | Snow |
|---|---|---|---|---|---|---|---|
| 1778029269 | 5.56° C | 44% | 1011.7 hPa | 0 mm | - | 9 W/m² | - |
| 1778028909 | 5.56° C | 44% | 1011.5 hPa | 0 mm | - | 14 W/m² | - |
| 1778028549 | 5.56° C | 43% | 1011.5 hPa | 0 mm | - | 24 W/m² | - |
| 1778028311 | 6.11° C | 43% | 1011.5 hPa | 0 mm | - | 35 W/m² | - |
| 1778028189 | 6.11° C | 43% | 1011.3 hPa | 0 mm | - | 40 W/m² | - |
| 1778027829 | 6.11° C | 44% | 1011.3 hPa | 0 mm | - | 58 W/m² | - |
| 1778027468 | 6.11° C | 43% | 1011.3 hPa | 0 mm | - | 50 W/m² | - |
| 1778027108 | 6.11° C | 43% | 1011.3 hPa | 0 mm | - | 56 W/m² | - |
| 1778026748 | 6.11° C | 43% | 1011.4 hPa | 0 mm | - | 152 W/m² | - |
| 1778026388 | 6.11° C | 43% | 1011.3 hPa | 0 mm | - | 73 W/m² | - |
| 1778026028 | 6.11° C | 43% | 1011.2 hPa | 0 mm | - | 82 W/m² | - |
| 1778025920 | 6.11° C | 43% | 1011.3 hPa | 0 mm | - | 86 W/m² | - |
| 1778025668 | 6.11° C | 43% | 1011.1 hPa | 0 mm | - | 91 W/m² | - |
| 1778025308 | 6.11° C | 42% | 1011.1 hPa | 0 mm | - | 106 W/m² | - |
| 1778024948 | 6.11° C | 43% | 1011.1 hPa | 0 mm | - | 116 W/m² | - |
| 1778024720 | 6.11° C | 43% | 1011 hPa | 0 mm | - | 112 W/m² | - |
| 1778024588 | 6.11° C | 44% | 1010.9 hPa | 0 mm | - | 118 W/m² | - |
| 1778024228 | 6.11° C | 43% | 1011 hPa | 0 mm | - | 126 W/m² | - |
| 1778023868 | 6.67° C | 42% | 1011 hPa | 0 mm | - | 136 W/m² | - |
| 1778023508 | 6.67° C | 42% | 1011 hPa | 0 mm | - | 155 W/m² | - |
| 1778023148 | 7.22° C | 41% | 1010.9 hPa | 0 mm | - | 212 W/m² | - |
| 1778022788 | 7.22° C | 43% | 1011 hPa | 0 mm | - | 195 W/m² | - |
| 1778022428 | 7.22° C | 40% | 1011 hPa | 0 mm | - | 241 W/m² | - |
| 1778022320 | 7.22° C | 40% | 1011 hPa | 0 mm | - | 296 W/m² | - |
| 1778022068 | 7.78° C | 41% | 1010.9 hPa | 0 mm | - | 362 W/m² | - |
* Rain latest hour (hover to see other rain measurements)
** Current wind speed in m/s (hover to see current wind gust speed)